[[{"header":{"parameterUnit":"m.s-1","parameterCategory":1,"la1":30.2991,"la2":30.254,"lo1":-89.0895,"lo2":-89.0444,"dy":0.0017,"dx":0.0017,"nx":28,"ny":28,"refTime":"2023-07-24T21:00:00:Z","depth":0,"parameterNumber":2,"parameterNumberName":"U-component_of_WINDS"},"data":[0,0,0,0,0,0,0,0,0,0,0,0,0,0,0,0,0,0,0,0,0,0,0,0,0,0,0,0,0,0,0,0,0,0,0,0,0,0,0,0,0,0,0,0,0,0,0,0,0,0,0,0,0,0,0,0,0,0,0.0226,0.0228,0,0.0346,0.0348,0.0349,0.0419,0.042,0.042,0.042,0.0543,0.0546,0.0548,0,0,0,0,0,0,0,0,0,0,0,0,0,0.0055,0.0058,0.0226,0.0228,0.0229,0.0346,0.0348,0.0349,0.0419,0.042,0.042,0.042,0.0542,0.0545,0.0549,0,0,0,0,0,0,0,0,0,0,0,0,0,0.0148,0.0059,0.0226,0.0278,0.0284,0.0346,0.0348,0.035,0.0419,0.042,0.042,0.0421,0.054,0.0545,0.0549,0.0568,0,0,0.0563,0.0565,0,0,0,0,0,0,0,0,0.0142,0.0154,0.0269,0.0275,0.0281,0.0368,0.0332,0.0423,0.0419,0.0368,0.042,0.0421,0.0484,0.0493,0.0515,0.0574,0.0579,0.0563,0.0566,0.0568,0.0569,0,0,0,0,0,0,0,0.0136,0.0149,0.0274,0.0271,0.0278,0.0295,0.0309,0.035,0.0422,0.0372,0.0378,0.0391,0.0488,0.051,0.0518,0.0581,0.0563,0.0567,0.057,0.0572,0.0658,0.0658,0,0,0,0,0,0,0.0121,0.0143,0.027,0.0277,0.0212,0.0298,0.0313,0.034,0.0422,0.0435,0.0391,0.0394,0.0503,0.0513,0.0523,0.0549,0.0568,0.0572,0.0575,0.0659,0.0658,0.0658,0,0,0,0,0,0,0.0117,0.0132,0.0265,0.0212,0.023,0.03,0.033,0.0342,0.0365,0.0436,0.0449,0.0401,0.0503,0.0517,0.0556,0.0554,0.0574,0.0578,0.0659,0.0659,0.0658,0.0601,0,0,0,0,0,0,0.0112,0.013,0.0139,0.0211,0.0233,0.0296,0.033,0.0344,0.0372,0.0378,0.0449,0.0461,0.0505,0.0549,0.056,0.056,0.0582,0.066,0.0659,0.0658,0.0603,0.0598,0.0594,0,0,0,0,0,0.0106,0.0118,0.0139,0.0154,0.0245,0.0296,0.0308,0.0359,0.0372,0.0381,0.0426,0.0458,0.0552,0.0552,0.0566,0.0567,0.066,0.0659,0.0658,0.0605,0.0599,0.0594,0,0,0,0,0,0,0.0044,0.0129,0.0153,0.0189,0.0235,0.0308,0.0321,0.0351,0.0394,0.0398,0.0458,0.0474,0.0506,0.0541,0.0539,0.0588,0.061,0.0611,0.0565,0.056,0.0555,0.0546,0.0585,0,0,0,0,0,0.0034,0.0069,0.0142,0.0167,0.0188,0.025,0.0275,0.0309,0.0359,0.0379,0.0427,0.0474,0.0513,0.0539,0.0579,0.0608,0.0624,0.0616,0.0611,0.0607,0.0608,0.0624,0.0621,0.0655,0.0655,0.0655,0,0,0.0015,0.0066,0.0085,0.0156,0.0195,0.0229,0.0266,0.0301,0.0327,0.0384,0.0424,0.046,0.0516,0.055,0.0567,0.058,0.0602,0.0606,0.0603,0.0606,0.0623,0.0619,0.0616,0.0654,0.0655,0.0655,0,0,-0.0002,0.004,0.0065,0.0103,0.0162,0.0203,0.0208,0.0277,0.0303,0.0344,0.0387,0.0418,0.0486,0.0523,0.0551,0.0544,0.0575,0.0556,0.0532,0.0547,0.0544,0.0542,0.0538,0.0536,0.0556,0.0556,0.0556,0,-0.0034,0.002,0.0074,0.0105,0.0134,0.0187,0.0212,0.0247,0.0316,0.0334,0.0347,0.0432,0.0473,0.0515,0.0513,0.0535,0.0542,0.0548,0.054,0.0539,0.0538,0.0534,0.0533,0.0553,0.0554,0.0554,0.0554,0,-0.0022,0.0014,0.0027,0.0091,0.0122,0.015,0.0206,0.0231,0.0262,0.0301,0.034,0.0391,0.0442,0.0455,0.0487,0.0501,0.0506,0.0529,0.0551,0.053,0.0528,0.0528,0.0549,0.055,0.0551,0.0552,0,0,-0.0074,0.0018,0.0022,0.0051,0.0119,0.0148,0.0177,0.0226,0.0245,0.029,0.0316,0.0371,0.0391,0.0423,0.0459,0.0471,0.046,0.0493,0.0495,0.0483,0.0477,0.0459,0.0456,0.0481,0.0481,0.0481,0.0472,0,-0.0083,-0.0027,0.0021,0.0059,0.0092,0.0141,0.0167,0.021,0.0246,0.0279,0.0319,0.0356,0.0382,0.0401,0.0416,0.0459,0.046,0.046,0.0504,0.0505,0.0488,0.0456,0.0437,0.0426,0.0471,0.0471,0.0471,0,-0.0085,-0.0042,-0.0002,0.0061,0.0077,0.0099,0.0146,0.0177,0.0227,0.0252,0.0286,0.0323,0.0355,0.0374,0.0417,0.0416,0.0437,0.046,0.0461,0.0467,0.0486,0.0459,0.0424,0.0421,0.0471,0.0471,0.0471,0,-0.0129,-0.0061,-0.0029,-0.0005,0.0069,0.0083,0.0114,0.0164,0.019,0.0232,0.0249,0.0294,0.0318,0.0351,0.0398,0.0408,0.0436,0.046,0.0457,0.0455,0.0461,0.0459,0.0426,0.0475,0.0475,0.0475,0.0475,0,-0.0143,-0.0121,-0.0048,-0.0028,-0.0002,0.0052,0.0076,0.0112,0.0156,0.0182,0.0228,0.0252,0.0313,0.0344,0.0382,0.0411,0.0422,0.0442,0.0452,0.0438,0.0435,0.0452,0.0453,0.0475,0.0475,0.0475,0.0475,0,-0.0188,-0.0138,-0.0099,-0.0033,-0.0016,0.0,0.0057,0.0077,0.0115,0.0148,0.0159,0.0218,0.0257,0.0307,0.0362,0.0387,0.0411,0.0426,0.0394,0.0399,0.0393,0.0392,0.0369,0.0368,0.0417,0.0417,0.0416,0,-0.0201,-0.0182,-0.0115,-0.0094,-0.0064,-0.003,-0.0004,0.0049,0.0074,0.013,0.0143,0.0185,0.0221,0.028,0.0328,0.0369,0.0385,0.0374,0.0391,0.0376,0.0383,0.0381,0.0382,0.0369,0.0368,0.0368,0.0367,0,-0.023,-0.0207,-0.017,-0.0126,-0.0097,-0.0059,-0.002,-0.0006,0.0055,0.0081,0.0121,0.0148,0.0203,0.0243,0.029,0.0322,0.0353,0.0361,0.0362,0.0348,0.0328,0.0337,0.038,0.0361,0.0362,0.0362,0.0363,0.0363,-0.0259,-0.0242,-0.0192,-0.0154,-0.0119,-0.0084,-0.0063,-0.0023,0.0011,0.006,0.0089,0.0126,0.0173,0.024,0.0269,0.0299,0.0311,0.0314,0.0314,0.0313,0.0308,0.0323,0.0308,0.0308,0.0308,0.0308,0.0308,0,-0.0288,-0.0254,-0.0219,-0.0166,-0.0137,-0.0109,-0.0065,-0.0043,-0.001,0.0031,0.0065,0.0109,0.0147,0.0197,0.0238,0.0252,0.0268,0.0261,0.026,0.0266,0.0295,0.0289,0.0248,0.0248,0.0248,0.0248,0.0248,0.0248,-0.0299,-0.0268,-0.0239,-0.0192,-0.0158,-0.0121,-0.0098,-0.0067,-0.0034,0.0013,0.0045,0.0077,0.0121,0.0166,0.0201,0.0215,0.0227,0.0216,0.0234,0.0259,0.0265,0.027,0.0265,0.0219,0.0219,0.0203,0.0202,0.0202]},{"header":{"parameterUnit":"m.s-1","parameterCategory":1,"la1":30.2991,"la2":30.254,"lo1":-89.0895,"lo2":-89.0444,"dy":0.0017,"dx":0.0017,"nx":28,"ny":28,"refTime":"2023-07-24T21:00:00:Z","depth":0,"parameterNumber":3,"parameterNumberName":"V-component_of_WINDS"},"data":[0,0,0,0,0,0,0,0,0,0,0,0,0,0,0,0,0,0,0,0,0,0,0,0,0,0,0,0,0,0,0,0,0,0,0,0,0,0,0,0,0,0,0,0,0,0,0,0,0,0,0,0,0,0,0,0,0,0,4.0735,4.0735,0,4.0795,4.0795,4.0796,4.0824,4.0824,4.0824,4.0824,4.0881,4.0882,4.0884,0,0,0,0,0,0,0,0,0,0,0,0,0,4.0637,4.0639,4.0734,4.0735,4.0736,4.0795,4.0795,4.0796,4.0824,4.0824,4.0824,4.0824,4.088,4.0882,4.0884,0,0,0,0,0,0,0,0,0,0,0,0,0,4.0686,4.0639,4.0734,4.0757,4.076,4.0794,4.0795,4.0796,4.0824,4.0824,4.0824,4.0824,4.088,4.0882,4.0884,4.09,0,0,4.0891,4.0892,0,0,0,0,0,0,0,0,4.0684,4.069,4.0753,4.0755,4.0758,4.0802,4.0782,4.0831,4.0824,4.0799,4.0824,4.0824,4.0854,4.0859,4.087,4.0902,4.0905,4.0892,4.0893,4.0894,4.0895,0,0,0,0,0,0,0,4.068,4.0687,4.0758,4.0754,4.0757,4.0762,4.0769,4.0791,4.0826,4.0801,4.0804,4.0811,4.0856,4.0868,4.0872,4.0906,4.0892,4.0894,4.0895,4.0896,4.0951,4.0951,0,0,0,0,0,0,4.0674,4.0684,4.0756,4.076,4.072,4.0764,4.0772,4.0788,4.0826,4.0832,4.0811,4.0812,4.0864,4.0869,4.0874,4.0893,4.0894,4.0896,4.0898,4.0951,4.0951,4.0951,0,0,0,0,0,0,4.0672,4.068,4.0754,4.0723,4.0733,4.0766,4.0784,4.0789,4.0801,4.0833,4.0839,4.0817,4.0864,4.087,4.0893,4.0895,4.0897,4.0899,4.0951,4.0951,4.0951,4.0933,0,0,0,0,0,0,4.0669,4.0679,4.0687,4.0723,4.0734,4.0774,4.0784,4.079,4.0806,4.0808,4.084,4.0846,4.0864,4.0889,4.0895,4.0899,4.0901,4.0951,4.0951,4.0951,4.0933,4.0932,4.0931,0,0,0,0,0,4.0665,4.0679,4.0687,4.0696,4.0745,4.0774,4.078,4.0803,4.0806,4.0813,4.0833,4.0845,4.0894,4.0891,4.0898,4.0902,4.0951,4.0951,4.0951,4.0934,4.0932,4.0931,0,0,0,0,0,0,4.0642,4.0684,4.0694,4.072,4.0743,4.0779,4.0789,4.0801,4.0823,4.0824,4.0849,4.0856,4.0876,4.0891,4.0887,4.0918,4.0923,4.0925,4.0908,4.0907,4.0906,4.0901,4.0903,0,0,0,0,0,4.0639,4.0661,4.0697,4.0716,4.0727,4.0756,4.0769,4.0784,4.0809,4.0819,4.084,4.0862,4.0882,4.0895,4.0916,4.0935,4.0942,4.0941,4.094,4.0939,4.094,4.0949,4.0949,4.0952,4.0952,4.0952,0,0,4.0635,4.0661,4.0673,4.0712,4.0732,4.0752,4.0764,4.0785,4.0799,4.0821,4.0844,4.086,4.0886,4.0907,4.0917,4.092,4.0941,4.0939,4.0938,4.094,4.095,4.0949,4.0949,4.0952,4.0952,4.0952,0,0,4.0638,4.066,4.0678,4.0698,4.0728,4.0746,4.075,4.0783,4.0796,4.0819,4.0835,4.0851,4.0886,4.0904,4.0917,4.0923,4.0934,4.0929,4.0923,4.0932,4.0932,4.0932,4.0933,4.0933,4.0929,4.0929,4.0929,0,4.0629,4.0661,4.0686,4.0706,4.0721,4.0742,4.0759,4.0776,4.081,4.082,4.0823,4.0866,4.0885,4.0909,4.091,4.0921,4.0924,4.0925,4.093,4.093,4.0931,4.0932,4.0932,4.0928,4.0929,4.0929,4.0929,0,4.0647,4.0669,4.068,4.0713,4.073,4.0748,4.0773,4.0786,4.0799,4.0816,4.0838,4.0861,4.0886,4.0893,4.0905,4.0917,4.0919,4.0926,4.0932,4.0929,4.093,4.0931,4.0927,4.0928,4.0928,4.0928,0,0,4.0639,4.0684,4.0687,4.0702,4.0735,4.0752,4.0769,4.0795,4.0805,4.0827,4.0841,4.0869,4.0875,4.089,4.0904,4.0912,4.0913,4.0918,4.0919,4.0916,4.0926,4.0921,4.0921,4.0921,4.0921,4.0921,4.0924,0,4.0645,4.068,4.0701,4.0726,4.0745,4.0764,4.0779,4.08,4.0816,4.0833,4.085,4.0869,4.0876,4.0885,4.0894,4.0912,4.0916,4.0912,4.0932,4.0933,4.0926,4.0922,4.0916,4.0918,4.0925,4.0925,4.0925,0,4.0658,4.0681,4.0708,4.0737,4.0746,4.0759,4.0783,4.0799,4.0822,4.0833,4.0848,4.0863,4.0879,4.0883,4.0906,4.0902,4.0912,4.0922,4.0922,4.0925,4.0929,4.0924,4.0919,4.0919,4.0926,4.0926,4.0926,0,4.0648,4.0684,4.0705,4.0717,4.0752,4.076,4.0775,4.0798,4.0811,4.083,4.0839,4.086,4.0871,4.0886,4.0904,4.0906,4.0924,4.093,4.0932,4.0932,4.0936,4.0935,4.0932,4.0942,4.0942,4.0942,4.0942,0,4.0653,4.0668,4.07,4.0713,4.073,4.0753,4.0768,4.0784,4.0804,4.0818,4.0835,4.0848,4.0872,4.0887,4.0901,4.0917,4.0922,4.093,4.0933,4.0928,4.0927,4.0935,4.0935,4.0942,4.0942,4.0942,4.0942,0,4.0644,4.0667,4.069,4.0721,4.0729,4.074,4.0765,4.0777,4.0793,4.081,4.0816,4.084,4.0859,4.0879,4.0903,4.0913,4.0927,4.0933,4.092,4.0922,4.0923,4.0922,4.0924,4.0925,4.0935,4.0935,4.0934,0,4.0646,4.0659,4.069,4.0701,4.0716,4.0734,4.0747,4.0769,4.0781,4.0807,4.0815,4.0835,4.0852,4.088,4.0899,4.0917,4.0923,4.0922,4.0926,4.0919,4.0922,4.0921,4.0921,4.0921,4.0921,4.0921,4.092,0,4.0646,4.0656,4.0675,4.0698,4.0713,4.0731,4.075,4.0758,4.0783,4.0796,4.0815,4.0828,4.0853,4.0872,4.0892,4.0905,4.0916,4.0919,4.092,4.0915,4.0907,4.0911,4.0917,4.0919,4.0919,4.0919,4.0919,4.0919,4.0643,4.0654,4.0677,4.0697,4.0714,4.073,4.0742,4.076,4.0776,4.0799,4.081,4.0829,4.0849,4.0878,4.089,4.0904,4.0907,4.0909,4.091,4.091,4.0908,4.0905,4.0908,4.0908,4.0908,4.0908,4.0908,0,4.0643,4.0659,4.0677,4.0702,4.0717,4.0727,4.0748,4.0759,4.0776,4.0794,4.081,4.0831,4.0849,4.0869,4.0887,4.0894,4.0899,4.0898,4.0897,4.09,4.0904,4.0901,4.0893,4.0893,4.0893,4.0893,4.0893,4.0893,4.0645,4.0664,4.0676,4.0702,4.0717,4.0736,4.0747,4.0762,4.0776,4.0799,4.0814,4.0827,4.0845,4.0865,4.088,4.0886,4.0891,4.0888,4.0895,4.0899,4.09,4.0901,4.0898,4.0889,4.0889,4.0889,4.0889,4.0889]}]]